Weather in Budylka

Ukraine / Sumi District     50°29′40″N   34°25′56″E
temp.,
°C
wind,
m/s
gust,
m/s
humid.,
%
clouds,
%
prec.,
mm/h
press.,
hPa
HPBL,
m
27 october, wed
wed2700:00+2ssw410578 0.0 1029180
03:00+1ssw410558 0.0 1028166
06:000ssw411565 0.0 1027202
09:00+3ssw512610 0.0 1026345
12:00+8sw79615 0.0 1025766
15:00+10wsw686178 0.0 10231118
18:00+7wsw35754 0.0 102381
21:00+7w367264 0.0 1023153
28 october, thu
thu2800:00+5wnw347941 0.0 102446
03:00+4w338598 0.0 102445
06:00+4wsw3690100 0.0 1023101
09:00+6sw51083100 0.1 1022295
12:00+9wsw61172100 0.1 1021557
15:00+11w51073100 0.1 1020702
18:00+9wnw4983100 0.1 1021413
21:00+9nw4108986 0.1 1022398
29 october, fri
fri2900:00+7nw35941 0.0 102399
03:00+6nnw35976 0.0 1025108
06:00+5n33925 0.0 102652
09:00+6nne26815 0.0 1028167
12:00+11ene34580 0.0 1029655
15:00+12ene33560 0.0 1029945
18:00+8ene22750 0.0 102914
21:00+6ese34830 0.0 103166
30 october, sat
sat3000:00+5se35900 0.0 103169
03:00+4se34910 0.0 103250
06:00+4se34930 0.0 103258
09:00+5se35870 0.0 1033138
12:00+11sse35610 0.0 1033578
15:00+13sse34520 0.0 1032886
18:00+9se33660 0.0 103221
21:00+7se33690 0.0 103238
31 october, sun
sun3100:00+6se33730 0.0 103235
03:00+5se33770 0.0 103229
05:00+4se33830 0.0 103231
08:00+5ese36790 0.0 1031157
11:00+11se46570 0.0 1030611
14:00+13se45460 0.0 1028823
17:00+8ese46620 0.0 102792
20:00+7ese49730 0.0 1027147